Location: �terpigny
(49.8910°N, 2.9249°E)
Time: 21:05:32
(UTC+00:00)

AO-73 - Visible Passes

Search period start: 28 June 2022 00:00
Search period end: 08 July 2022 00:00
Orbit: 579 x 658 km, 97.6° (Epoch: 28 June)

Date Brightness Start Highest point End Pass type
(mag) Time Alt. Az. Time Alt. Az. Time Alt. Az.
01 Jul ? 02:25:18 10° E 02:25:45 10° E 02:26:11 10° E visible
02 Jul ? 02:40:09 10° NE 02:42:44 15° E 02:45:18 10° ESE visible
03 Jul ? 02:56:15 10° NE 02:59:40 21° E 03:03:06 10° SE visible
07 Jul ? 02:28:37 10° ENE 02:30:13 12° E 02:31:49 10° ESE visible
